When you browse on this site, cookies collect data to enhance your experience and personalize the content and advertising you see.
Visit our Privacy Policy to learn more. By continuing to use the site, you agree to this use of cookies and data.
  • In France
  • List of Countries
  • For 7 days
  • Water Temperature
  • Weather Map
  • Weather Widgets
  • user-avatar
    Login

    Hourly Weather Hoddesdon

    Today, 18 August, Sunday

    Time Temperature Precipitation Wind Pressure Humidity
    00:00 +17°C° 0 mm 3 mps 750 mmHg 80%
    01:00 +16°C° 0.1 mm 3 mps 750 mmHg 80%
    02:00 +16°C° 0.1 mm 3 mps 750 mmHg 81%
    03:00 +16°C° 0.1 mm 3 mps 749 mmHg 81%
    04:00 +16°C° 0 mm 3 mps 749 mmHg 82%
    05:00 +16°C° 0 mm 3 mps 749 mmHg 82%
    06:00 +16°C° 0 mm 2 mps 749 mmHg 82%
    07:00 +17°C° 0.2 mm 3 mps 749 mmHg 79%
    08:00 +17°C° 0.2 mm 3 mps 749 mmHg 76%
    09:00 +17°C° 0.2 mm 4 mps 749 mmHg 73%
    10:00 +17°C° 0.9 mm 5 mps 750 mmHg 69%
    11:00 +19°C° 0.9 mm 5 mps 750 mmHg 64%
    12:00 +20°C° 0.9 mm 6 mps 750 mmHg 59%
    13:00 +21°C° 0 mm 7 mps 750 mmHg 57%
    14:00 +21°C° 0 mm 7 mps 751 mmHg 55%
    15:00 +21°C° 0 mm 8 mps 751 mmHg 53%
    16:00 +21°C° 0 mm 7 mps 751 mmHg 56%
    17:00 +20°C° 0 mm 6 mps 751 mmHg 59%
    18:00 +19°C° 0 mm 5 mps 751 mmHg 62%
    19:00 +17°C° 0.1 mm 5 mps 752 mmHg 65%
    20:00 +16°C° 0.1 mm 5 mps 752 mmHg 67%
    21:00 +15°C° 0.1 mm 5 mps 753 mmHg 70%
    22:00 +14°C° 0 mm 5 mps 753 mmHg 71%
    23:00 +14°C° 0 mm 5 mps 753 mmHg 73%

    Tomorrow, 19 August, Monday

    Time Temperature Precipitation Wind Pressure Humidity
    00:00 +14°C° 0 mm 5 mps 754 mmHg 75%
    01:00 +13°C° 0 mm 5 mps 754 mmHg 76%
    02:00 +13°C° 0 mm 5 mps 754 mmHg 78%
    03:00 +13°C° 0 mm 5 mps 754 mmHg 79%
    04:00 +13°C° 0 mm 5 mps 754 mmHg 80%
    05:00 +13°C° 0 mm 5 mps 755 mmHg 81%
    06:00 +13°C° 0 mm 5 mps 755 mmHg 82%
    07:00 +14°C° 0 mm 5 mps 756 mmHg 77%
    08:00 +16°C° 0 mm 5 mps 756 mmHg 72%
    09:00 +17°C° 0 mm 5 mps 756 mmHg 67%
    10:00 +19°C° 0.1 mm 5 mps 757 mmHg 63%
    11:00 +20°C° 0.1 mm 5 mps 757 mmHg 59%
    12:00 +21°C° 0.1 mm 5 mps 757 mmHg 55%
    13:00 +21°C° 0.2 mm 5 mps 757 mmHg 54%
    14:00 +22°C° 0.2 mm 5 mps 757 mmHg 52%
    15:00 +22°C° 0.2 mm 5 mps 757 mmHg 50%
    16:00 +21°C° 0.4 mm 5 mps 758 mmHg 54%
    17:00 +20°C° 0.4 mm 5 mps 758 mmHg 57%
    18:00 +19°C° 0.4 mm 5 mps 758 mmHg 61%
    19:00 +17°C° 0 mm 5 mps 759 mmHg 65%
    20:00 +15°C° 0 mm 5 mps 759 mmHg 68%
    21:00 +14°C° 0 mm 4 mps 760 mmHg 72%
    22:00 +14°C° 0 mm 4 mps 760 mmHg 74%
    23:00 +13°C° 0 mm 4 mps 760 mmHg 77%

    Day after tomorrow, 20 August, Tuesday

    Time Temperature Precipitation Wind Pressure Humidity
    00:00 +13°C° 0 mm 3 mps 760 mmHg 79%
    01:00 +12°C° 0 mm 3 mps 761 mmHg 81%
    02:00 +12°C° 0 mm 3 mps 761 mmHg 82%
    03:00 +11°C° 0 mm 3 mps 761 mmHg 84%
    04:00 +12°C° 0 mm 3 mps 761 mmHg 84%
    05:00 +12°C° 0 mm 3 mps 762 mmHg 84%
    06:00 +12°C° 0 mm 3 mps 762 mmHg 85%
    07:00 +13°C° 0 mm 3 mps 762 mmHg 77%
    08:00 +14°C° 0 mm 3 mps 763 mmHg 70%
    09:00 +17°C° 0 mm 4 mps 763 mmHg 63%
    10:00 +18°C° 0 mm 4 mps 763 mmHg 59%
    11:00 +19°C° 0 mm 4 mps 764 mmHg 55%
    12:00 +19°C° 0 mm 4 mps 764 mmHg 51%
    13:00 +20°C° 0 mm 5 mps 764 mmHg 50%
    14:00 +20°C° 0 mm 5 mps 764 mmHg 49%
    15:00 +20°C° 0 mm 5 mps 764 mmHg 48%
    16:00 +20°C° 0 mm 4 mps 764 mmHg 51%
    17:00 +19°C° 0 mm 3 mps 765 mmHg 54%
    18:00 +19°C° 0 mm 3 mps 765 mmHg 57%
    19:00 +18°C° 0 mm 3 mps 765 mmHg 62%
    20:00 +17°C° 0 mm 3 mps 766 mmHg 66%
    21:00 +16°C° 0 mm 2 mps 766 mmHg 70%
    22:00 +15°C° 0 mm 2 mps 766 mmHg 75%
    23:00 +15°C° 0 mm 2 mps 766 mmHg 79%

    21 August, Wednesday

    Time Temperature Precipitation Wind Pressure Humidity
    00:00 +14°C° 0 mm 2 mps 766 mmHg 84%
    01:00 +14°C° 0 mm 2 mps 766 mmHg 84%
    02:00 +14°C° 0 mm 2 mps 766 mmHg 85%
    03:00 +14°C° 0 mm 2 mps 766 mmHg 86%
    04:00 +14°C° 0 mm 2 mps 766 mmHg 86%
    05:00 +14°C° 0 mm 2 mps 766 mmHg 85%
    06:00 +14°C° 0 mm 2 mps 766 mmHg 85%
    07:00 +16°C° 0 mm 2 mps 766 mmHg 79%
    08:00 +17°C° 0 mm 2 mps 767 mmHg 72%
    09:00 +18°C° 0 mm 2 mps 767 mmHg 66%
    10:00 +19°C° 0 mm 3 mps 766 mmHg 60%
    11:00 +21°C° 0 mm 3 mps 766 mmHg 55%
    12:00 +22°C° 0 mm 3 mps 766 mmHg 50%
    13:00 +22°C° 0 mm 3 mps 766 mmHg 50%
    14:00 +22°C° 0 mm 3 mps 765 mmHg 50%
    15:00 +22°C° 0 mm 4 mps 765 mmHg 50%
    16:00 +22°C° 0 mm 4 mps 765 mmHg 53%
    17:00 +21°C° 0 mm 4 mps 765 mmHg 56%
    18:00 +20°C° 0 mm 4 mps 765 mmHg 60%
    19:00 +19°C° 0 mm 3 mps 765 mmHg 62%
    20:00 +18°C° 0 mm 3 mps 765 mmHg 64%
    21:00 +16°C° 0 mm 3 mps 765 mmHg 67%
    22:00 +16°C° 0 mm 3 mps 765 mmHg 70%
    23:00 +14°C° 0 mm 3 mps 765 mmHg 74%

    22 August, Thursday

    Time Temperature Precipitation Wind Pressure Humidity
    00:00 +14°C° 0 mm 3 mps 765 mmHg 77%
    01:00 +14°C° 0 mm 2 mps 765 mmHg 79%
    02:00 +14°C° 0 mm 2 mps 765 mmHg 81%
    03:00 +14°C° 0 mm 2 mps 765 mmHg 83%
    04:00 +14°C° 0 mm 2 mps 765 mmHg 83%
    05:00 +14°C° 0 mm 2 mps 765 mmHg 83%
    06:00 +14°C° 0 mm 2 mps 765 mmHg 83%
    07:00 +15°C° 0 mm 2 mps 765 mmHg 76%
    08:00 +17°C° 0 mm 3 mps 766 mmHg 70%
    09:00 +18°C° 0 mm 3 mps 766 mmHg 64%
    10:00 +19°C° 0 mm 3 mps 766 mmHg 59%
    11:00 +21°C° 0 mm 3 mps 766 mmHg 54%
    12:00 +22°C° 0 mm 3 mps 765 mmHg 49%
    13:00 +24°C° 0 mm 3 mps 765 mmHg 49%
    14:00 +24°C° 0 mm 3 mps 765 mmHg 48%
    15:00 +25°C° 0 mm 3 mps 765 mmHg 48%
    16:00 +24°C° 0 mm 3 mps 765 mmHg 52%
    17:00 +22°C° 0 mm 3 mps 765 mmHg 56%
    18:00 +22°C° 0 mm 3 mps 765 mmHg 61%
    19:00 +20°C° 0 mm 2 mps 765 mmHg 65%
    20:00 +19°C° 0 mm 2 mps 765 mmHg 69%
    21:00 +18°C° 0 mm 2 mps 765 mmHg 73%
    22:00 +17°C° 0 mm 2 mps 765 mmHg 75%
    23:00 +17°C° 0 mm 2 mps 765 mmHg 77%

    23 August, Friday

    Time Temperature Precipitation Wind Pressure Humidity
    00:00 +16°C° 0 mm 1 mps 765 mmHg 79%
    01:00 +16°C° 0 mm 1 mps 765 mmHg 80%
    02:00 +15°C° 0 mm 1 mps 765 mmHg 81%
    03:00 +15°C° 0 mm 1 mps 764 mmHg 83%
    04:00 +15°C° 0 mm 1 mps 764 mmHg 81%
    05:00 +15°C° 0 mm 1 mps 764 mmHg 80%
    06:00 +15°C° 0 mm 1 mps 764 mmHg 78%
    07:00 +18°C° 0 mm 1 mps 764 mmHg 70%
    08:00 +19°C° 0 mm 1 mps 764 mmHg 62%
    09:00 +20°C° 0 mm 1 mps 765 mmHg 53%
    10:00 +22°C° 0 mm 1 mps 764 mmHg 47%
    11:00 +23°C° 0 mm 1 mps 764 mmHg 40%
    12:00 +24°C° 0 mm 2 mps 764 mmHg 34%
    13:00 +25°C° 0 mm 1 mps 764 mmHg 33%
    14:00 +25°C° 0 mm 1 mps 763 mmHg 32%
    15:00 +26°C° 0 mm 1 mps 763 mmHg 31%
    16:00 +25°C° 0 mm 1 mps 763 mmHg 37%
    17:00 +24°C° 0 mm 1 mps 762 mmHg 43%
    18:00 +23°C° 0 mm 2 mps 762 mmHg 49%
    19:00 +22°C° 0 mm 1 mps 762 mmHg 52%
    20:00 +20°C° 0 mm 1 mps 762 mmHg 55%
    21:00 +19°C° 0 mm 1 mps 762 mmHg 58%
    22:00 +19°C° 0 mm 1 mps 762 mmHg 60%
    23:00 +18°C° 0 mm 1 mps 762 mmHg 61%
    Show more